Location: Camerons Lookout
(40.9833°S, 175.9333°E)
Time: 20:59:17
(UTC+00:00)

Cosmos 1315 Rocket - Pass Details

Date: 14 January 2026
Orbit: 493 x 511 km, 81.2° (Epoch: 18 February)

Event Time Altitude Azimuth Distance (km) Brightness Sun altitude
Exits shadow 11:25:38 33° 146° (SE) 889 4.1 -26.2°
Drops below altitude 10° 11:27:58 10° 162° (SSE) 1,764 6.1 -26.4°
Sets 11:30:09 0° 166° (SSE) 2,663 7.3 -26.5°
